Temp
-20 -19 -18 -18 -18 -18 -19 -19 -18 -18 -19 -18 -15 -13 -12 -13 -17 -16 -16 -15 -15 -15 -14 -14 -15 -15 -16 -16 -16 -16 -16 -16 -17 -17 -17 -16 -16 -16 -16 -16 -16 -16 -16 -15
-22 -20 -19 -18 -18 -18 -18 -18 -18 -18 -19 -18 -14 -14 -13 -14 -17 -16 -16 -16 -15 -15 -15 -15 -15 -16 -16 -16 -16 -16 -16 -16 -16 -17 -17 -16 -16 -16 -17 -17 -16 -16 -16 -15
-23 -21 -20 -19 -19 -18 -19 -19 -19 -19 -19 -17 -16 -15 -14 -14 -17 -16 -16 -15 -15 -15 -15 -16 -15 -16 -16 -16 -16 -17 -16 -16 -16 -16 -17 -18 -17 -17 -17 -17 -16 -16 -15 -16
-23 -23 -21 -20 -19 -18 -19 -19 -19 -18 -17 -16 -15 -15 -14 -15 -16 -16 -16 -16 -15 -15 -15 -16 -16 -15 -16 -16 -16 -16 -17 -16 -17 -17 -17 -17 -17 -17 -17 -16 -16 -16 -16 -16
-23 -23 -23 -21 -20 -20 -20 -19 -19 -18 -17 -17 -16 -15 -14 -13 -16 -16 -16 -16 -16 -16 -16 -16 -16 -16 -16 -17 -17 -16 -17 -17 -17 -17 -17 -17 -17 -17 -17 -16 -16 -16 -16 -16
-22 -22 -22 -22 -21 -21 -19 -19 -19 -18 -17 -17 -17 -15 -14 -14 -16 -17 -17 -16 -18 -16 -16 -17 -17 -16 -16 -17 -17 -17 -16 -17 -17 -17 -17 -16 -16 -16 -16 -16 -16 -16 -16 -16
-22 -22 -22 -22 -22 -22 -20 -19 -19 -18 -17 -17 -16 -15 -15 -15 -16 -17 -17 -17 -16 -16 -17 -17 -17 -17 -16 -17 -17 -17 -16 -16 -16 -16 -17 -16 -15 -16 -16 -16 -16 -16 -16 -16
-23 -22 -22 -22 -22 -21 -22 -20 -20 -19 -17 -16 -17 -16 -16 -16 -17 -17 -17 -17 -17 -18 -17 -18 -18 -18 -18 -16 -16 -16 -16 -16 -16 -16 -16 -16 -15 -16 -16 -16 -16 -16 -16 -16
-23 -23 -22 -22 -22 -22 -21 -22 -21 -19 -18 -17 -17 -16 -16 -15 -17 -17 -17 -18 -18 -17 -17 -18 -17 -17 -17 -16 -16 -16 -16 -16 -16 -16 -16 -16 -16 -17 -16 -16 -16 -16 -16 -16
-23 -23 -23 -22 -22 -23 -23 -22 -21 -21 -18 -17 -17 -16 -16 -16 -17 -17 -17 -18 -17 -17 -17 -17 -17 -17 -16 -17 -16 -16 -16 -16 -16 -16 -16 -15 -16 -17 -17 -16 -16 -17 -17 -17
-23 -23 -23 -23 -23 -23 -24 -22 -22 -21 -19 -18 -17 -17 -17 -17 -17 -17 -17 -18 -17 -17 -17 -18 -17 -16 -16 -16 -16 -16 -16 -16 -16 -16 -16 -16 -16 -17 -17 -17 -17 -18 -18 -17
-23 -23 -23 -23 -24 -25 -26 -24 -22 -21 -20 -18 -17 -17 -16 -16 -17 -17 -18 -17 -17 -17 -17 -17 -17 -16 -16 -15 -16 -16 -16 -16 -16 -16 -15 -16 -16 -17 -17 -17 -17 -17 -17 -17
-23 -24 -24 -24 -25 -25 -26 -24 -22 -21 -20 -20 -18 -18 -18 -18 -18 -17 -17 -18 -18 -17 -17 -17 -17 -16 -16 -16 -16 -16 -16 -16 -16 -16 -16 -16 -16 -17 -17 -17 -17 -17 -16 -16
-24 -24 -24 -24 -25 -25 -26 -24 -22 -21 -21 -20 -19 -19 -19 -18 -18 -17 -17 -18 -18 -17 -18 -17 -17 -17 -17 -17 -17 -17 -17 -16 -16 -16 -16 -17 -17 -17 -17 -17 -17 -17 -17 -16
-24 -24 -25 -25 -25 -25 -25 -24 -22 -22 -21 -21 -20 -19 -19 -18 -18 -18 -18 -18 -17 -18 -17 -17 -17 -17 -17 -17 -17 -16 -17 -16 -17 -17 -17 -17 -17 -17 -17 -17 -17 -17 -16 -17
-26 -25 -25 -25 -25 -25 -24 -24 -22 -22 -21 -19 -19 -19 -18 -18 -17 -18 -18 -17 -18 -17 -17 -17 -17 -17 -17 -17 -16 -16 -17 -17 -17 -17 -17 -17 -17 -17 -17 -17 -16 -17 -17 -17
-26 -25 -25 -25 -25 -25 -22 -21 -21 -21 -20 -20 -20 -19 -19 -18 -18 -18 -17 -17 -17 -17 -17 -17 -17 -18 -17 -17 -17 -17 -17 -17 -18 -17 -17 -17 -17 -17 -17 -17 -17 -17 -17 -17
-29 -29 -28 -28 -27 -26 -23 -23 -22 -22 -22 -20 -19 -18 -18 -18 -18 -18 -17 -17 -17 -17 -17 -17 -17 -18 -17 -17 -17 -17 -18 -18 -18 -18 -18 -17 -17 -17 -17 -17 -17 -17 -18 -18
-29 -28 -27 -25 -24 -24 -23 -23 -22 -21 -21 -21 -19 -18 -18 -18 -17 -17 -18 -17 -17 -17 -17 -17 -17 -17 -17 -16 -17 -18 -18 -18 -18 -18 -18 -18 -18 -18 -18 -18 -18 -18 -18 -18
-25 -25 -24 -23 -22 -21 -22 -21 -20 -20 -20 -19 -18 -19 -18 -17 -17 -16 -18 -17 -17 -16 -17 -17 -17 -17 -17 -17 -18 -19 -19 -19 -18 -18 -18 -18 -18 -18 -18 -18 -18 -18 -19 -19
-22 -24 -23 -21 -20 -20 -21 -20 -20 -20 -19 -18 -18 -18 -18 -18 -18 -17 -17 -16 -17 -17 -16 -17 -17 -17 -17 -18 -18 -18 -19 -19 -19 -19 -19 -19 -19 -19 -19 -19 -19 -19 -19 -20
-20 -20 -21 -21 -20 -21 -21 -20 -20 -19 -19 -19 -18 -18 -18 -17 -18 -17 -17 -17 -17 -17 -17 -17 -17 -18 -18 -18 -18 -18 -19 -19 -19 -19 -19 -19 -19 -19 -19 -19 -20 -20 -20 -20
-21 -20 -20 -20 -20 -20 -21 -20 -19 -19 -19 -18 -19 -18 -18 -18 -18 -17 -17 -17 -17 -18 -18 -17 -18 -18 -19 -19 -19 -19 -20 -20 -20 -20 -20 -20 -20 -20 -20 -20 -20 -21 -21 -21
-20 -20 -20 -20 -20 -20 -20 -19 -19 -19 -19 -19 -19 -19 -18 -18 -18 -18 -18 -18 -18 -18 -18 -18 -18 -19 -19 -19 -19 -19 -20 -20 -20 -20 -20 -20 -20 -20 -21 -21 -21 -21 -21 -21
-20 -20 -20 -20 -20 -20 -20 -20 -20 -20 -19 -19 -19 -18 -19 -19 -19 -18 -18 -18 -18 -18 -18 -19 -19 -19 -19 -19 -19 -19 -20 -20 -20 -20 -20 -20 -21 -21 -21 -21 -21 -21 -22 -22
-20 -20 -20 -20 -20 -20 -20 -19 -20 -20 -19 -19 -19 -19 -19 -19 -19 -19 -19 -19 -19 -19 -19 -19 -19 -19 -19 -19 -19 -19 -20 -20 -21 -21 -21 -21 -21 -21 -21 -22 -22 -22 -22 -22
-20 -20 -20 -20 -20 -20 -20 -20 -20 -20 -20 -19 -20 -20 -20 -19 -19 -19 -19 -19 -20 -19 -19 -19 -19 -19 -19 -20 -20 -21 -21 -20 -21 -21 -21 -21 -21 -22 -22 -22 -22 -23 -23 -23
Height
5465 5487 5509 5527 5543 5558 5569 5585 5598 5613 5615 5623 5637 5651 5661 5668 5678 5683 5688 5693 5699 5706 5709 5711 5714 5716 5717 5718 5721 5723 5727 5729 5728 5731 5733 5734 5735 5735 5737 5738 5740 5738 5737 5741
5442 5460 5483 5504 5520 5537 5554 5569 5582 5590 5599 5610 5630 5641 5648 5657 5668 5674 5681 5688 5691 5696 5701 5704 5708 5710 5712 5714 5717 5719 5722 5724 5727 5729 5730 5729 5730 5730 5732 5733 5734 5734 5733 5737
5428 5440 5457 5479 5497 5517 5534 5548 5555 5570 5577 5611 5621 5631 5638 5648 5661 5666 5672 5678 5684 5689 5695 5700 5702 5704 5708 5710 5713 5715 5717 5719 5721 5724 5726 5725 5726 5728 5728 5729 5728 5730 5730 5732
5419 5427 5438 5456 5476 5495 5509 5521 5536 5564 5570 5594 5609 5619 5630 5637 5650 5654 5662 5671 5676 5683 5688 5693 5696 5700 5703 5705 5708 5710 5713 5715 5716 5717 5718 5719 5721 5723 5724 5724 5725 5725 5727 5726
5409 5418 5425 5437 5456 5473 5483 5504 5530 5551 5569 5589 5597 5605 5618 5627 5641 5647 5654 5663 5671 5676 5682 5688 5692 5696 5699 5701 5703 5705 5708 5709 5711 5712 5714 5715 5716 5717 5717 5719 5719 5719 5718 5718
5400 5409 5416 5424 5436 5448 5467 5492 5516 5538 5556 5571 5581 5598 5614 5624 5637 5642 5651 5658 5667 5672 5679 5683 5686 5688 5692 5695 5697 5700 5702 5704 5707 5707 5708 5708 5707 5711 5712 5712 5712 5712 5711 5713
5391 5401 5409 5414 5421 5439 5460 5484 5507 5524 5542 5555 5580 5590 5601 5612 5629 5636 5646 5650 5655 5667 5671 5676 5679 5681 5684 5688 5689 5694 5697 5699 5701 5701 5701 5699 5705 5705 5706 5705 5705 5706 5705 5706
5384 5394 5402 5410 5418 5430 5446 5470 5489 5512 5531 5550 5567 5579 5590 5599 5618 5624 5635 5643 5654 5663 5665 5667 5670 5672 5676 5679 5683 5687 5691 5694 5695 5695 5694 5695 5695 5697 5697 5696 5697 5698 5699 5700
5378 5388 5397 5404 5411 5421 5438 5457 5481 5501 5523 5542 5559 5568 5581 5591 5610 5613 5625 5633 5640 5650 5653 5656 5658 5664 5667 5673 5676 5681 5685 5688 5689 5689 5688 5687 5692 5689 5689 5688 5687 5691 5692 5693
5373 5383 5391 5398 5406 5415 5428 5447 5471 5493 5514 5533 5546 5560 5570 5578 5598 5608 5618 5622 5629 5637 5643 5647 5653 5657 5662 5665 5671 5676 5678 5681 5683 5682 5681 5682 5684 5684 5682 5682 5690 5684 5685 5686
5369 5377 5386 5394 5400 5407 5418 5437 5464 5486 5506 5523 5537 5550 5563 5572 5589 5601 5611 5614 5620 5627 5634 5641 5646 5649 5654 5659 5664 5669 5672 5674 5676 5676 5675 5675 5677 5676 5677 5679 5677 5678 5677 5677
5365 5373 5381 5388 5396 5403 5415 5432 5457 5481 5501 5516 5532 5548 5560 5570 5583 5590 5600 5607 5614 5623 5631 5635 5640 5643 5647 5652 5657 5663 5666 5669 5669 5670 5669 5669 5670 5670 5670 5671 5671 5671 5671 5671
5364 5372 5380 5388 5395 5403 5415 5430 5454 5478 5496 5513 5529 5543 5551 5564 5577 5584 5589 5597 5609 5617 5626 5631 5634 5637 5642 5647 5652 5657 5657 5661 5661 5663 5663 5664 5664 5664 5664 5665 5665 5665 5665 5665
5362 5370 5378 5387 5396 5403 5415 5430 5453 5477 5495 5509 5525 5537 5548 5561 5570 5578 5585 5592 5602 5610 5619 5623 5627 5632 5637 5640 5645 5648 5652 5653 5655 5657 5657 5658 5658 5659 5659 5660 5660 5659 5659 5658
5359 5367 5375 5384 5393 5401 5414 5433 5457 5477 5495 5508 5523 5537 5547 5556 5566 5573 5580 5589 5596 5603 5610 5616 5619 5624 5629 5632 5637 5638 5644 5647 5648 5651 5651 5650 5652 5653 5653 5653 5653 5652 5651 5649
5358 5366 5374 5382 5390 5400 5414 5432 5456 5475 5494 5516 5526 5538 5544 5550 5558 5566 5576 5584 5591 5598 5603 5608 5612 5616 5623 5624 5627 5632 5637 5640 5641 5643 5644 5645 5644 5645 5645 5645 5644 5642 5640 5638
5356 5365 5372 5381 5392 5407 5426 5446 5466 5483 5495 5509 5521 5531 5540 5546 5553 5562 5570 5577 5585 5591 5596 5601 5605 5610 5613 5616 5622 5626 5628 5631 5632 5634 5636 5637 5636 5635 5635 5634 5632 5630 5628 5626
5362 5370 5379 5388 5402 5415 5435 5457 5473 5484 5496 5504 5517 5528 5538 5544 5551 5557 5565 5572 5578 5583 5589 5594 5598 5603 5605 5607 5613 5616 5619 5622 5624 5625 5627 5627 5627 5625 5625 5623 5622 5619 5617 5614
5369 5377 5387 5398 5413 5434 5456 5475 5488 5498 5504 5509 5517 5527 5535 5541 5548 5554 5559 5564 5570 5577 5581 5586 5590 5593 5595 5601 5605 5609 5611 5614 5615 5616 5617 5617 5616 5615 5614 5612 5610 5607 5605 5602
5380 5394 5408 5422 5438 5454 5471 5485 5494 5500 5505 5515 5522 5528 5530 5537 5542 5549 5555 5556 5561 5568 5573 5577 5580 5585 5589 5593 5597 5599 5601 5603 5605 5606 5607 5606 5605 5603 5602 5600 5597 5595 5592 5588
5404 5419 5435 5447 5461 5470 5479 5489 5500 5505 5510 5517 5521 5525 5530 5536 5539 5545 5549 5551 5555 5558 5566 5566 5573 5580 5583 5586 5588 5590 5591 5593 5595 5595 5594 5593 5592 5590 5588 5586 5584 5581 5578 5574
5434 5444 5454 5466 5475 5484 5490 5495 5500 5505 5512 5517 5521 5525 5528 5533 5536 5539 5542 5546 5549 5555 5561 5566 5570 5577 5577 5578 5578 5579 5580 5582 5582 5582 5581 5579 5578 5577 5575 5573 5570 5567 5563 5560
5455 5464 5472 5478 5487 5491 5494 5497 5504 5508 5511 5514 5520 5523 5526 5529 5533 5535 5538 5543 5546 5550 5553 5557 5563 5566 5566 5567 5568 5569 5571 5571 5571 5569 5569 5567 5565 5563 5561 5559 5556 5552 5549 5545
5469 5475 5480 5485 5489 5493 5497 5500 5505 5508 5511 5515 5519 5522 5526 5528 5531 5533 5536 5539 5542 5544 5546 5549 5553 5554 5555 5556 5557 5559 5559 5559 5558 5557 5556 5554 5552 5550 5547 5545 5542 5538 5534 5530
5476 5481 5484 5487 5492 5495 5499 5503 5507 5510 5513 5516 5517 5519 5521 5524 5527 5531 5533 5535 5536 5538 5540 5541 5543 5544 5546 5547 5548 5548 5548 5547 5546 5544 5542 5541 5538 5536 5534 5531 5527 5523 5519 5515
5479 5484 5489 5493 5497 5499 5502 5506 5508 5508 5509 5510 5513 5516 5518 5519 5521 5524 5526 5528 5530 5532 5534 5535 5536 5536 5537 5537 5537 5537 5536 5534 5533 5532 5530 5528 5525 5522 5519 5515 5511 5508 5504 5500
5482 5486 5490 5493 5496 5498 5501 5502 5503 5504 5506 5506 5507 5509 5512 5515 5517 5519 5520 5521 5524 5524 5526 5527 5528 5528 5528 5527 5526 5526 5525 5524 5522 5519 5516 5513 5510 5507 5504 5500 5497 5493 5490 5485
Wind_Speed
83 94 91 89 86 82 79 74 71 65 65 65 55 45 44 46 40 44 46 44 37 27 24 25 21 19 18 19 24 28 26 27 28 22 22 24 20 30 31 26 23 24 22 16
72 86 94 92 92 88 83 78 75 73 70 68 55 50 49 47 44 47 43 45 41 34 29 29 22 21 21 22 22 24 24 27 26 20 22 22 16 18 23 25 23 22 21 14
43 78 92 96 95 92 88 85 84 80 78 65 60 55 52 47 46 45 48 47 44 35 31 28 25 23 23 24 24 20 20 20 22 21 17 21 19 18 23 26 27 25 23 19
43 42 86 98 97 95 93 92 88 78 78 69 61 60 55 51 52 54 54 47 46 37 34 30 28 24 25 24 22 25 25 20 19 18 18 23 24 24 26 25 25 24 18 20
42 44 47 93 101 99 99 95 87 81 73 68 66 64 58 54 49 54 54 51 46 40 37 30 28 26 24 27 25 25 23 23 22 21 19 22 26 28 29 26 27 28 29 28
44 42 41 57 95 104 101 96 89 84 77 73 71 61 57 55 48 49 46 45 45 41 34 31 33 30 26 26 24 29 25 25 25 26 26 26 31 27 28 28 29 31 33 31
46 43 38 40 69 94 101 96 90 86 81 75 64 62 61 59 49 51 46 49 50 43 39 36 36 32 32 32 32 29 28 29 30 30 28 32 26 29 31 34 33 31 35 35
49 45 41 35 38 75 99 98 94 88 82 74 68 64 63 62 52 53 50 51 50 44 42 41 40 39 41 37 32 31 31 29 31 32 32 30 28 28 30 31 32 32 30 30
49 45 40 36 39 49 79 98 93 88 81 74 68 66 64 63 56 58 53 56 57 49 50 48 46 40 42 39 36 34 30 30 34 33 33 30 25 28 28 28 31 27 27 27
46 42 38 36 36 41 66 90 93 87 82 76 70 67 66 67 58 59 53 60 58 53 54 49 44 42 39 43 35 32 30 31 34 34 34 32 28 27 30 30 20 22 23 25
42 41 36 30 30 37 60 78 91 88 81 77 73 69 67 64 58 58 56 61 60 58 55 47 46 44 39 38 36 35 32 33 34 32 34 31 26 26 25 19 20 20 24 26
43 38 34 27 26 36 57 70 86 85 80 79 74 67 63 60 53 55 57 60 58 56 50 48 46 44 40 34 35 33 33 33 35 33 30 28 24 21 20 20 20 21 23 24
43 38 33 29 30 40 58 67 81 85 80 75 72 67 67 60 50 52 62 60 56 52 49 48 47 43 38 34 32 29 33 34 35 30 25 22 22 19 19 19 21 22 23 24
35 35 33 33 31 41 57 67 79 81 77 73 63 64 45 45 51 53 59 61 57 53 51 50 47 41 36 36 33 34 33 32 31 28 22 19 19 20 22 22 23 25 27 29
35 33 30 31 33 41 60 72 75 77 75 71 56 49 35 36 48 57 53 53 54 55 55 50 48 42 39 40 36 41 36 31 27 26 26 25 24 24 24 26 27 30 32 33
27 29 31 36 43 52 74 78 80 78 73 51 44 45 35 40 47 49 53 48 51 49 48 46 43 39 42 40 37 38 39 34 30 29 31 31 28 29 30 32 33 35 36 38
28 33 37 43 54 64 75 77 77 71 71 59 39 41 35 38 47 49 50 46 45 49 43 48 45 43 45 38 49 40 40 38 34 33 33 36 34 34 35 37 38 38 40 43
33 44 52 54 45 64 72 71 68 69 71 46 37 37 33 34 41 47 47 47 48 49 47 46 47 44 44 42 39 46 43 40 36 36 37 38 38 38 39 40 41 43 45 47
31 44 56 61 64 64 57 48 45 44 47 58 35 26 22 27 33 44 46 48 48 50 47 43 40 44 42 45 45 44 42 40 40 41 41 41 40 41 42 43 45 47 48 49
53 59 65 64 64 66 53 35 29 18 26 48 38 26 15 17 37 43 45 46 53 53 46 55 45 42 39 38 37 34 37 41 45 47 45 44 44 44 46 48 49 49 49 50
73 75 58 68 62 50 47 31 28 21 26 36 32 33 27 23 22 34 41 34 51 40 33 40 37 38 35 36 40 46 41 38 41 44 45 47 47 48 48 49 51 50 51 52
62 63 54 50 45 34 37 29 27 25 25 23 22 22 26 31 33 38 37 45 35 31 35 41 40 37 41 42 46 49 48 45 44 44 45 46 47 48 49 49 50 50 51 52
52 44 43 32 26 25 30 24 26 22 17 11 17 18 20 23 28 34 35 36 41 40 37 39 38 34 33 35 38 39 39 40 42 43 45 46 47 48 48 48 49 51 52 54
29 24 23 24 20 19 16 12 12 9 10 10 11 17 21 22 25 29 31 33 35 34 34 34 32 30 31 33 35 38 40 42 43 45 46 47 47 47 47 48 51 53 55 55
15 19 19 16 10 9 8 8 7 5 6 10 9 8 14 20 23 24 26 27 29 28 27 28 29 32 32 33 35 39 41 42 43 43 43 43 44 47 49 52 54 54 51 52
5 10 13 11 9 8 8 10 2 2 6 7 11 13 15 15 19 20 23 23 22 25 26 27 30 32 35 37 40 44 43 39 38 41 44 45 46 49 49 49 49 49 51 53
13 15 13 11 14 16 16 15 14 9 8 7 6 16 17 16 21 26 27 27 30 30 31 33 34 36 37 35 32 32 39 42 45 46 48 47 45 46 47 48 50 53 56 59
Wind_Direction
222 222 219 220 220 219 218 218 219 215 217 216 222 220 223 221 210 220 225 225 228 230 232 240 233 224 225 230 231 226 226 224 207 213 215 222 245 236 241 252 266 263 258 236
223 216 217 216 218 218 218 217 217 216 218 215 217 217 220 217 209 218 220 226 225 221 221 237 234 221 222 227 227 232 234 237 243 237 234 236 260 257 238 251 252 255 262 262
230 217 212 213 214 216 216 215 216 215 218 213 214 216 218 218 206 216 216 221 225 222 220 231 233 230 229 226 230 229 229 224 235 240 233 245 243 239 238 248 249 260 261 268
219 221 214 209 212 213 216 215 214 215 216 210 211 214 215 217 204 212 216 218 222 217 223 228 236 229 226 222 232 230 233 230 238 233 237 240 236 242 252 261 264 265 267 269
217 215 221 213 208 212 215 214 213 213 214 211 214 212 214 213 201 213 215 212 217 216 221 226 239 237 230 237 243 242 233 242 248 250 241 240 240 242 251 256 262 268 266 267
211 212 215 216 213 210 212 212 211 210 212 209 210 211 215 215 204 210 211 216 218 221 218 224 233 239 227 230 237 241 240 246 250 251 252 250 248 251 260 262 259 264 267 268
207 211 215 219 216 214 210 211 210 208 208 210 206 207 212 215 204 210 213 219 217 218 218 221 231 240 235 229 229 235 243 249 252 256 258 261 270 264 262 263 267 263 267 272
206 208 214 218 218 214 211 208 209 207 206 206 203 207 209 211 201 207 213 219 220 215 221 222 228 235 234 234 228 229 239 251 256 261 267 263 271 277 271 265 262 261 258 261
202 208 211 216 219 212 212 209 206 207 205 204 202 204 208 210 197 205 207 212 216 214 218 222 227 231 231 235 232 232 240 248 253 263 268 263 276 273 271 264 260 261 260 262
198 202 202 213 217 210 206 210 205 205 202 201 203 201 205 210 198 205 205 211 213 211 216 222 225 231 231 236 240 239 247 251 255 263 266 270 274 265 265 263 273 257 253 250
198 199 203 212 213 201 200 203 205 202 200 200 202 201 205 207 199 203 206 209 212 215 214 218 224 231 231 234 237 236 242 250 255 266 270 271 272 263 266 268 252 244 250 257
197 198 202 206 203 194 195 197 199 200 200 201 201 201 203 208 202 203 205 215 217 216 215 217 224 232 238 239 239 238 244 253 262 263 264 263 261 260 260 255 252 252 253 259
197 199 202 200 197 196 195 191 192 196 197 202 199 207 212 207 203 202 203 211 213 214 216 222 228 233 240 245 241 238 246 251 260 266 269 265 258 254 249 249 251 258 265 272
197 204 204 200 190 190 195 186 187 194 198 201 206 207 211 214 206 204 207 208 210 210 216 222 230 234 239 244 240 237 243 249 260 265 264 262 252 250 254 260 266 272 277 281
201 203 203 200 191 186 182 176 183 191 195 201 204 202 209 213 208 209 210 210 210 211 216 222 229 234 241 239 234 236 242 249 254 259 258 254 258 260 264 270 273 277 282 287
191 184 184 187 188 179 172 167 180 190 194 184 184 194 188 195 203 209 210 212 214 214 221 224 228 236 236 232 232 241 244 246 249 253 256 261 261 265 270 273 279 284 290 294
176 176 175 178 168 169 168 174 181 185 187 183 180 173 184 196 196 202 206 207 209 217 222 228 233 239 240 247 241 239 241 245 248 254 258 263 267 271 276 282 285 289 292 294
146 149 155 148 155 166 167 169 180 189 190 179 171 166 178 193 199 202 205 209 212 218 223 229 233 237 236 237 240 234 238 246 252 257 261 265 271 276 280 283 287 289 291 293
155 152 162 154 148 147 147 164 183 189 202 206 186 172 192 210 205 201 202 206 212 216 221 229 235 233 244 240 244 247 243 249 255 259 262 267 273 278 280 282 284 286 289 292
141 143 134 135 140 147 146 143 148 161 192 196 198 201 226 208 200 207 219 214 209 214 214 225 235 236 235 237 237 241 250 256 260 263 265 269 272 276 279 281 284 287 290 292
123 124 136 142 147 143 143 146 161 168 184 204 219 235 228 225 238 206 207 218 217 205 216 214 221 230 232 239 245 256 255 257 261 262 264 267 272 276 278 281 285 288 289 290
128 134 128 142 142 150 169 189 194 164 160 162 178 195 207 211 212 220 210 221 221 229 243 233 234 241 247 250 252 251 260 263 260 262 266 269 272 276 280 284 285 286 288 289
124 128 130 125 143 166 192 191 180 188 182 168 181 190 202 207 209 215 224 233 240 245 244 243 246 248 249 252 254 256 258 261 263 266 269 272 276 279 281 283 285 287 288 289
102 135 141 151 145 143 136 150 163 176 178 180 202 208 208 215 221 226 233 241 246 248 249 253 255 260 261 260 260 262 262 263 264 266 269 272 276 279 282 283 284 286 288 289
90 143 156 179 166 163 178 180 177 171 172 193 194 208 216 222 221 222 228 234 240 246 252 257 260 260 262 263 266 263 261 263 266 270 274 276 277 279 282 285 287 287 284 285
156 157 168 171 194 192 192 189 215 272 240 235 221 218 214 221 230 240 243 240 259 269 262 258 260 264 267 267 266 267 270 275 276 274 275 280 284 286 287 286 286 286 286 284
225 208 209 238 243 230 239 250 266 282 270 244 255 225 216 228 238 242 245 251 257 259 262 263 262 264 266 267 269 269 267 266 273 281 285 285 284 285 286 287 287 284 281 279